Location: ??
(35.1715°N, 139.6450°E)
Time: 11:01:53
(UTC+00:00)

Cosmos 1867 - Pass Details

Date: 05 August 2024
Orbit: 772 x 802 km, 65.0° (Epoch: 15 September)

Event Time Altitude Azimuth Distance (km) Brightness Sun altitude
Rises 12:51:12 0° 335° (NNW) 3,315 7.9 -31.2°
Reaches altitude 10° 12:53:42 10° 339° (NNW) 2,381 6.9 -31.5°
Enters shadow 12:57:44 44° 9° (N) 1,089 4.5 -31.9°
